This is the latest recevied weather packets stored in our database for station/object SM2NLD. If no packets are shown the sender has not sent any weather packets the latest 1 day(s).
| Time | Temp. | Humidity | Pressure | Rain* | Wind** | Luminosity | Snow |
|---|---|---|---|---|---|---|---|
| 1778064566 | 4.44° C | 11% | 996.9 hPa | 0 mm | - | - | - |
| 1778064442 | 4.44° C | 11% | 996.8 hPa | 0 mm | - | - | - |
| 1778064266 | 4.44° C | 11% | 996.8 hPa | 0 mm | - | - | - |
| 1778063966 | 4.44° C | 11% | 996.7 hPa | 0 mm | - | - | - |
| 1778063666 | 3.89° C | 11% | 996.7 hPa | 0 mm | - | - | - |
| 1778063242 | 5° C | 11% | 996.7 hPa | 0 mm | - | - | - |
| 1778063224 | 5° C | 11% | 996.7 hPa | 0 mm | - | - | - |
| 1778062766 | 5° C | 11% | 996.7 hPa | 0 mm | - | - | - |
| 1778062143 | 4.44° C | 11% | 996.5 hPa | 0 mm | - | - | - |
| 1778061244 | 6.11° C | 11% | 996.5 hPa | 0 mm | - | - | - |
| 1778060665 | 4.44° C | 11% | 996.3 hPa | 0 mm | - | - | - |
| 1778060163 | 4.44° C | 11% | 996.2 hPa | 0 mm | - | - | - |
| 1778060065 | 4.44° C | 11% | 996.2 hPa | 0 mm | - | - | - |
| 1778059765 | 5° C | 11% | 996.2 hPa | 0 mm | - | - | - |
| 1778059084 | 4.44° C | 11% | 996.1 hPa | 0 mm | - | - | - |
| 1778058865 | 4.44° C | 11% | 996.1 hPa | 0 mm | - | - | - |
| 1778058442 | 3.89° C | 11% | 996.2 hPa | 0 mm | - | - | - |
| 1778057240 | 3.89° C | 11% | 996 hPa | 0 mm | - | - | - |
| 1778056563 | 3.33° C | 11% | 996 hPa | 0 mm | - | - | - |
| 1778056366 | 3.33° C | 11% | 996 hPa | 0 mm | - | - | - |
| 1778055766 | 3.33° C | 11% | 996 hPa | 0 mm | - | - | - |
| 1778054846 | 3.33° C | 11% | 995.6 hPa | 0 mm | - | - | - |
| 1778054566 | 3.33° C | 11% | 995.6 hPa | 0 mm | - | - | - |
| 1778054265 | 3.33° C | 11% | 995.8 hPa | 0 mm | - | - | - |
| 1778054044 | 3.33° C | 11% | 995.8 hPa | 0 mm | - | - | - |
* Rain latest hour (hover to see other rain measurements)
** Current wind speed in m/s (hover to see current wind gust speed)